Stations météo

réclame
Mon MeteoGroup
Charleville, France (7075): Température de l'air & dewpoint: 11.12.2018 06:00:00 - 17.12.2018 06:00:00 (CET)Charleville, France (7075): Température de l'air 5cm: 11.12.2018 06:00:00 - 17.12.2018 06:00:00 (CET)Charleville, France (7075): Température de l'air -20cm & Température de l'air -100cm: 11.12.2018 06:00:00 - 17.12.2018 06:00:00 (CET)Charleville, France (7075): Vitesse du vent & gusts: 11.12.2018 06:00:00 - 17.12.2018 06:00:00 (CET)Charleville, France (7075): Direction du vent: 11.12.2018 06:00:00 - 17.12.2018 06:00:00 (CET)Charleville, France (7075): reduced air pressure: 11.12.2018 06:00:00 - 17.12.2018 06:00:00 (CET)Charleville, France (7075): visibility: 11.12.2018 06:00:00 - 17.12.2018 06:00:00 (CET)Charleville, France (7075): Ensoleillement: 11.12.2018 06:00:00 - 17.12.2018 06:00:00 (CET)Charleville, France (7075): Quantités de précipitations: 11.12.2018 06:00:00 - 17.12.2018 06:00:00 (CET)
Date & Time tt [°C] td [°C] tt 5cm [°C] tt -20cm [°C] tt -100cm [°C] ff [km/h] ff [knt] fx [km/h] fx [knt] dd ppp [hPa] vv [km] sd [min] rr [mm]
17.12.2018 06:00:00 2,5 2,4 1,6 4,6 9,7 5 3 10 5 E 1016,5 0,4 0 0,0
17.12.2018 05:00:00 2,4 2,3 1,4 4,7 9,7 5 3 13 7 ESE 1015,7 1,3 0 0,0
17.12.2018 04:00:00 1,9 1,8 1,5 4,6 9,7 8 4 12 7 ESE 1015,3 0,6 0 0,4
17.12.2018 03:00:00 2,4 2,3 1,6 4,7 9,8 8 5 15 8 SE 1015,0 1,9 0 0,0
17.12.2018 02:00:00 2,2 2,1 1,7 4,7 9,8 9 5 12 7 ESE 1014,5 0,6 0 0,0
17.12.2018 01:00:00 2,1 2,0 1,4 4,7 9,8 9 5 13 7 ESE 1014,4 0,3 0 0,0
17.12.2018 00:00:00 2,0 1,9 1,5 4,7 9,8 9 5 13 7 ESE 1014,6 2,4 0 0,0
16.12.2018 23:00:00 2,1 2,0 1,4 4,7 9,8 9 5 13 7 SE 1014,2 0,7 0 0,0
16.12.2018 22:00:00 1,8 1,7 0,8 4,7 9,8 8 4 13 7 ESE 1014,2 0,8 0 0,0
16.12.2018 21:00:00 1,2 1,1 0,7 4,7 9,8 2 1 10 5 ESE 1014,1 0,3 0 0,0
16.12.2018 20:00:00 1,2 1,1 0,5 4,7 9,8 3 1 6 3 S 1014,1 0,4 0 0,0
16.12.2018 19:00:00 0,6 0,5 0,5 4,7 9,8 3 2 5 3 SE 1013,7 0,2 0 0,0
16.12.2018 18:00:00 1,2 1,1 0,7 4,7 9,8 1 1 9 5 S 1013,6 0,2 0 0,0
16.12.2018 17:00:00 1,5 1,4 0,8 4,7 9,8 6 4 9 5 ESE 1013,3 0,2 0 0,0
16.12.2018 16:00:00 1,7 1,6 1,4 4,7 9,9 4 2 8 4 SSE 1013,0 0,2 0 0,0
16.12.2018 15:00:00 1,6 1,5 1,7 4,6 9,8 5 3 14 8 E 1012,9 0,4 5 0,0
16.12.2018 14:00:00 1,2 1,1 1,5 4,7 9,9 9 5 15 8 E 1013,2 0,3 0 0,0
16.12.2018 13:00:00 1,1 1,0 1,4 4,7 9,9 8 4 14 8 E 1013,5 0,3 0 0,0
16.12.2018 12:00:00 0,6 0,3 0,7 4,6 9,9 9 5 11 6 E 1013,5 0,2 0 0,0
16.12.2018 11:00:00 0,3 0,0 0,2 4,6 9,9 6 4 11 6 ESE 1013,7 0,2 0 0,0
16.12.2018 10:00:00 0,2 -0,1 0,2 4,6 9,9 7 4 11 6 ESE 1013,4 0,4 0 0,0
16.12.2018 09:00:00 0,0 -0,3 0,2 4,6 9,9 5 3 11 6 ESE 1013,1 1,0 0 0,6
16.12.2018 08:00:00 -0,1 -0,4 -0,1 4,6 9,9 4 2 10 5 ESE 1012,7 0,4 0 0,2
16.12.2018 07:00:00 -0,3 -0,6 -0,3 4,6 9,9 6 3 11 6 ESE 1012,3 1,1 0 0,0
16.12.2018 06:00:00 -0,4 -0,8 -0,4 4,6 9,9 6 4 13 7 ESE 1012,3 1,4 0 0,0
16.12.2018 05:00:00 -0,6 -1,0 -0,5 4,6 10,0 5 3 18 10 ESE 1012,2 1,5 0 0,0
16.12.2018 04:00:00 -0,7 -1,3 -0,7 4,6 10,0 11 6 22 12 ESE 1012,0 1,5 0 0,0
16.12.2018 03:00:00 -1,0 -1,7 -1,0 4,6 10,0 12 6 22 12 ESE 1012,0 3,5 0 0,0
16.12.2018 02:00:00 -1,2 -1,8 -1,3 4,6 10,0 10 5 21 12 ESE 1012,4 2,3 0 1,2
16.12.2018 01:00:00 -1,2 -1,9 -1,1 4,6 10,0 16 9 29 16 ESE 1012,7 2,1 0 0,8
16.12.2018 00:00:00 -1,0 -1,8 -1,3 4,6 10,0 16 9 41 22 ESE 1013,6 4,2 0 0,8
15.12.2018 23:00:00 -1,6 -2,4 -1,5 4,7 10,0 26 14 38 20 ESE 1014,0 3,1 0 0,8
15.12.2018 22:00:00 -1,7 -2,4 -1,4 4,7 10,0 20 11 42 23 ESE 1015,3 1,7 0 0,6
15.12.2018 21:00:00 -1,3 -2,7 -1,1 4,7 10,0 23 13 38 20 ESE 1016,6 1,7 0 0,2
15.12.2018 20:00:00 -0,4 -4,1 -0,4 4,7 10,0 23 12 39 21 SE 1017,6 6 0 0,0
15.12.2018 19:00:00 -0,3 -4,9 -0,7 4,7 10,0 20 11 39 21 SE 1018,5 12 0 0,0
15.12.2018 18:00:00 -0,5 -5,1 -0,9 4,7 10,0 21 12 43 23 SE 1019,3 13 0 0,0
15.12.2018 17:00:00 -0,6 -5,4 -1,3 4,7 10,1 24 13 41 22 SE 1020,3 14 0 0,0
15.12.2018 16:00:00 -0,5 -5,5 -0,8 4,7 10,1 20 11 37 20 SE 1020,8 15 3 0,0
15.12.2018 15:00:00 0,3 -5,3 0,5 4,7 10,1 18 10 34 18 SE 1021,5 14 43 0,0
15.12.2018 14:00:00 0,9 -4,9 0,7 4,7 10,1 17 9 31 17 SSE 1022,7 16 9 0,0
15.12.2018 13:00:00 0,2 -5,2 0,3 4,7 10,1 15 8 32 17 SSE 1023,5 16 0 0,0
15.12.2018 12:00:00 -0,1 -5,5 0,4 4,7 10,1 19 11 36 19 SSE 1024,1 17 0 0,0
15.12.2018 11:00:00 0,1 -5,5 0,4 4,8 10,1 16 9 38 20 SE 1024,6 17 0 0,0
15.12.2018 10:00:00 -0,1 -5,1 -0,4 4,8 10,1 13 7 22 12 SE 1024,7 15 3 0,0
15.12.2018 09:00:00 -0,4 -4,8 -0,8 4,8 10,1 12 7 18 10 ESE 1024,7 13 0 0,0
15.12.2018 08:00:00 -0,5 -4,2 -0,9 4,8 10,1 8 4 13 7 SE 1025,0 12 0 0,0
15.12.2018 07:00:00 -0,5 -4,0 -0,9 4,8 10,1 7 4 11 6 SE 1025,0 13 0 0,0
15.12.2018 06:00:00 -0,4 -4,3 -0,7 4,8 10,1 10 5 16 9 ESE 1024,8 14 0 0,0
15.12.2018 05:00:00 -0,4 -4,3 -1,2 4,8 10,1 13 7 19 10 ESE 1024,8 14 0 0,0
15.12.2018 04:00:00 -0,6 -4,3 -1,4 4,8 10,1 4 2 13 7 SSE 1025,4 14 0 0,0
15.12.2018 03:00:00 -1,0 -4,0 -1,6 4,8 10,2 5 3 9 5 E 1025,3 16 0 0,0
15.12.2018 02:00:00 -1,4 -3,8 -1,7 4,8 10,2 3 1 4 2 ESE 1025,4 13 0 0,0
15.12.2018 01:00:00 -0,9 -3,8 -1,6 4,8 10,2 2 1 8 4 NW 1025,8 13 0 0,0
15.12.2018 00:00:00 -1,0 -3,7 -1,7 4,8 10,2 3 1 5 3 ENE 1025,2 17 0 0,0
14.12.2018 23:00:00 -0,6 -5,0 -1,5 4,8 10,2 3 1 9 5 S 1025,1 20 0 0,0
14.12.2018 22:00:00 -0,5 -5,5 -1,3 4,8 10,3 5 3 11 6 NE 1024,9 19 0 0,0
14.12.2018 21:00:00 -0,5 -4,7 -1,2 4,8 10,2 6 3 8 4 ENE 1024,8 20 0 0,0
14.12.2018 20:00:00 -0,2 -5,4 -1,0 4,8 10,3 6 3 8 5 ENE 1024,9 20 0 0,0
14.12.2018 19:00:00 0,0 -5,2 -0,9 4,8 10,3 5 3 9 5 NNE 1024,8 20 0 0,0
14.12.2018 18:00:00 -0,2 -5,2 -0,9 4,8 10,3 3 1 6 3 NNE 1024,3 20 0 0,0
14.12.2018 17:00:00 0,1 -5,1 -0,4 4,8 10,3 4 2 5 3 NNW 1024,2 20 0 0,0
14.12.2018 16:00:00 0,4 -6,0 0,3 4,8 10,3 3 2 16 9 NNE 1023,5 20 0 0,0
14.12.2018 15:00:00 0,4 -6,0 0,7 4,8 10,3 11 6 22 12 E 1022,6 20 0 0,0
14.12.2018 14:00:00 0,5 -5,3 1,0 4,8 10,3 10 5 22 12 ESE 1021,9 20 0 0,0
14.12.2018 13:00:00 0,5 -5,5 0,9 4,8 10,3 11 6 18 10 ENE 1021,9 20 0 0,0
14.12.2018 12:00:00 0,4 -4,8 0,5 4,9 10,3 8 4 15 8 ENE 1022,2 20 0 0,0
14.12.2018 11:00:00 0,2 -5,0 -0,1 4,9 10,3 7 4 23 12 E 1022,6 20 0 0,0
14.12.2018 10:00:00 -0,1 -4,5 -1,3 4,9 10,3 8 4 17 9 NE 1022,2 20 0 0,0
14.12.2018 09:00:00 -0,7 -4,4 -1,3 5,0 10,3 1 1 6 4 SE 1021,9 20 0 0,0
14.12.2018 08:00:00 -0,6 -4,5 -1,3 5,0 10,3 3 2 11 6 NNE 1021,0 20 0 0,0
14.12.2018 07:00:00 -0,4 -5,0 -1,0 5,1 10,3 4 2 18 10 NE 1020,4 20 0 0,0
14.12.2018 06:00:00 -0,5 -4,7 -1,2 5,1 10,3 7 4 17 9 NE 1019,8 20 0 0,0
14.12.2018 05:00:00 -0,6 -4,7 -1,7 5,1 10,3 9 5 17 9 NE 1019,6 20 0 0,0
14.12.2018 04:00:00 -1,1 -4,6 -1,7 5,2 10,3 4 2 13 7 WNW 1020,1 20 0 0,0
14.12.2018 03:00:00 -0,9 -4,8 -2,8 5,2 10,3 8 5 13 7 NE 1020,1 20 0 0,0
14.12.2018 02:00:00 -1,9 -5,4 -4,3 5,3 10,3 6 4 24 13 NNE 1019,8 20 0 0,0
14.12.2018 01:00:00 -1,5 -5,7 -6,9 5,4 10,3 17 9 25 13 ENE 1019,5 20 0 0,0
14.12.2018 00:00:00 -3,4 -5,7 -7,8 5,4 10,4 2 1 13 7 W 1019,7 18 0 0,0
13.12.2018 23:00:00 -3,2 -5,7 -6,5 5,5 10,4 5 3 9 5 SSW 1019,5 16 0 0,0
13.12.2018 22:00:00 -3,1 -5,9 -7,0 5,5 10,4 5 3 18 10 E 1019,5 20 0 0,0
13.12.2018 21:00:00 -3,2 -5,5 -7,7 5,5 10,4 8 5 16 8 E 1019,0 19 0 0,0
13.12.2018 20:00:00 -3,7 -6,3 -7,5 5,6 10,4 3 2 7 4 SE 1018,8 15 0 0,0
13.12.2018 19:00:00 -1,7 -5,4 -5,4 5,6 10,4 4 2 21 11 ENE 1018,5 20 0 0,0
13.12.2018 18:00:00 -0,2 -4,8 -2,4 5,6 10,4 11 6 26 14 E 1018,1 20 0 0,0
13.12.2018 17:00:00 0,8 -4,8 -1,1 5,6 10,4 15 8 34 18 ENE 1017,5 20 4 0,0
13.12.2018 16:00:00 2,0 -4,7 1,3 5,6 10,4 21 11 41 22 E 1017,0 20 60 0,0
13.12.2018 15:00:00 2,8 -4,2 4,5 5,7 10,4 20 11 40 22 E 1016,8 20 60 0,0
13.12.2018 14:00:00 3,0 -3,6 4,6 5,7 10,4 23 12 39 21 E 1016,9 20 60 0,0
13.12.2018 13:00:00 2,8 -3,1 5,5 5,8 10,4 23 13 41 22 ENE 1016,9 20 60 0,0
13.12.2018 12:00:00 2,4 -2,5 2,7 5,8 10,4 23 13 38 20 E 1017,6 20 60 0,0
13.12.2018 11:00:00 1,6 -2,7 0,4 5,9 10,4 23 12 37 20 E 1018,0 20 60 0,0
13.12.2018 10:00:00 0,6 -3,0 -4,3 6,0 10,4 12 7 21 12 E 1018,3 20 60 0,0
13.12.2018 09:00:00 -1,7 -3,7 -7,1 6,1 10,5 4 2 14 8 ESE 1018,7 20 0 0,0
13.12.2018 08:00:00 -2,4 -4,4 -6,5 6,2 10,4 9 5 24 13 E 1018,6 20 0 0,0
13.12.2018 07:00:00 -1,2 -3,1 -8,5 6,2 10,4 16 9 23 12 ENE 1018,7 20 0 0,0
13.12.2018 06:00:00 -4,8 -5,6 -9,2 6,3 10,4 4 2 6 3 ESE 1019,4 17 0 0,0
13.12.2018 05:00:00 -3,7 -4,4 -8,5 6,4 10,4 4 2 9 5 E 1019,7 12 0 0,0
13.12.2018 04:00:00 -3,1 -4,1 -8,2 6,5 10,4 4 2 14 7 ESE 1020,2 17 0 0,0
13.12.2018 03:00:00 -2,2 -3,2 -6,6 6,6 10,4 8 4 13 7 E 1020,4 20 0 0,0
13.12.2018 02:00:00 -2,3 -3,3 -6,1 6,7 10,5 9 5 13 7 E 1020,8 20 0 0,0
13.12.2018 01:00:00 -2,7 -3,2 -8,3 6,7 10,5 5 3 11 6 SE 1021,6 20 0 0,0
13.12.2018 00:00:00 -4,2 -4,9 -7,7 6,8 10,5 3 2 6 3 SSW 1022,0 12 0 0,0
12.12.2018 23:00:00 -3,8 -4,3 -7,9 6,9 10,5 4 2 8 4 SW 1022,2 9 0 0,0
12.12.2018 22:00:00 -4,8 -5,6 -7,5 7,0 10,5 3 2 4 2 ENE 1022,7 0,3 0 0,0
12.12.2018 21:00:00 -3,5 -4,0 -6,9 7,0 10,5 3 1 6 3 W 1023,1 1,6 0 0,0
12.12.2018 20:00:00 -3,2 -3,7 -6,3 7,0 10,5 2 1 4 2 W 1023,6 1,2 0 0,0
12.12.2018 19:00:00 -2,3 -2,7 -4,7 7,1 10,5 2 1 8 5 W 1023,8 1,0 0 0,0
12.12.2018 18:00:00 -2,0 -2,6 -3,5 7,1 10,5 4 2 10 6 W 1023,8 3,4 0 0,0
12.12.2018 17:00:00 -0,5 -1,3 -1,7 7,1 10,5 4 2 8 4 W 1023,6 0,6 4 0,0
12.12.2018 16:00:00 1,9 0,9 1,9 7,0 10,5 5 3 7 4 WNW 1023,7 7 60 0,0
12.12.2018 15:00:00 2,9 1,6 3,1 7,0 10,5 2 1 17 9 SSE 1023,9 10 54 0,0
12.12.2018 14:00:00 1,0 0,6 2,1 7,0 10,5 11 6 22 12 ESE 1024,6 6 2 0,0
12.12.2018 13:00:00 0,4 0,1 1,9 7,1 10,6 10 6 20 11 SE 1025,1 1,0 1 0,0
12.12.2018 12:00:00 -0,3 -0,6 0,7 7,1 10,5 4 2 9 5 E 1025,6 0,3 0 0,0
12.12.2018 11:00:00 -0,6 -0,9 -0,5 7,1 10,5 0 0 9 5 N 1026,4 0,1 0 0,0
12.12.2018 10:00:00 -1,4 -1,7 -1,1 7,1 10,5 3 2 7 4 E 1026,3 0,2 0 0,0
12.12.2018 09:00:00 -1,6 -1,9 -1,2 7,2 10,5 4 2 6 3 S 1026,1 0,2 0 0,0
12.12.2018 08:00:00 -1,4 -1,7 -1,2 7,2 10,5 1 1 5 3 ESE 1025,9 0,2 0 0,0
12.12.2018 07:00:00 -1,2 -1,5 -0,9 7,2 10,5 1 1 6 3 ESE 1025,7 0,9 0 0,0
12.12.2018 06:00:00 -1,0 -1,3 -0,7 7,3 10,5 4 2 9 5 S 1025,7 0,3 0 0,0
12.12.2018 05:00:00 -0,8 -1,1 -0,4 7,3 10,5 4 2 10 5 E 1025,8 0,3 0 0,0
12.12.2018 04:00:00 -0,6 -0,9 -0,3 7,3 10,6 4 2 9 5 E 1026,2 0,7 0 0,0
12.12.2018 03:00:00 -0,8 -1,1 -0,4 7,3 10,5 6 3 11 6 E 1026,1 0,2 0 0,0
12.12.2018 02:00:00 -0,3 -0,6 0,2 7,4 10,6 4 2 10 5 NE 1025,7 0,1 0 0,0
12.12.2018 01:00:00 0,5 0,2 0,8 7,4 10,5 6 3 9 5 NNW 1025,9 0,1 0 0,0
12.12.2018 00:00:00 1,0 0,7 1,3 7,4 10,5 2 1 5 3 E 1026,1 0,6 0 0,0
11.12.2018 23:00:00 1,3 1,0 1,4 7,4 10,6 2 1 8 4 ENE 1026,1 0,2 0 0,0
11.12.2018 22:00:00 1,2 0,9 1,5 7,4 10,6 4 2 8 5 NW 1026,2 0,3 0 0,0
11.12.2018 21:00:00 1,2 0,9 1,2 7,4 10,6 3 2 7 4 NNE 1026,5 0,2 0 0,0
11.12.2018 20:00:00 0,8 0,5 1,2 7,4 10,6 4 2 9 5 NNE 1026,5 0,2 0 0,0
11.12.2018 19:00:00 1,4 1,0 1,7 7,5 10,6 4 2 7 4 NNE 1026,4 0,2 0 0,0
11.12.2018 18:00:00 2,1 1,7 2,3 7,4 10,6 3 2 9 5 NNE 1026,0 0,4 0 0,0
11.12.2018 17:00:00 2,4 2,0 0,7 7,4 10,6 4 2 9 5 N 1026,0 6 0 0,0
11.12.2018 16:00:00 2,5 1,6 1,5 7,4 10,6 2 1 6 4 SSW 1025,9 9 0 0,0
11.12.2018 15:00:00 3,0 2,3 3,9 7,4 10,6 3 2 7 4 N 1026,0 8 0 0,0
11.12.2018 14:00:00 2,8 2,2 3,7 7,4 10,6 4 2 9 5 W 1026,4 8 0 0,0
11.12.2018 13:00:00 2,5 2,2 3,5 7,4 10,6 3 2 9 5 ENE 1027,0 8 0 0,0
11.12.2018 12:00:00 2,0 1,7 3,1 7,4 10,6 3 2 9 5 ESE 1027,3 7 0 0,0
11.12.2018 11:00:00 1,2 1,1 1,4 7,4 10,6 5 3 11 6 E 1027,7 0,8 0 0,0
11.12.2018 10:00:00 0,4 0,1 0,7 7,5 10,6 5 3 16 9 SE 1027,4 0,1 0 0,0
11.12.2018 09:00:00 0,3 0,0 0,8 7,5 10,6 9 5 16 9 NW 1026,9 0,1 0 0,0
11.12.2018 08:00:00 0,9 0,6 1,2 7,5 10,6 7 4 13 7 WNW 1026,8 0,2 0 0,0
11.12.2018 07:00:00 1,3 1,0 1,4 7,6 10,6 4 2 9 5 NW 1026,9 0,5 0 0,0
11.12.2018 06:00:00 1,3 1,0 1,2 7,7 10,6 3 2 10 5 NNW 1027,3 1,8 0 0,0

tt = Température de l'air
td = dewpoint
tt 5cm = Température de l'air 5cm
tt -20cm = Température de l'air -20cm
tt -100cm = Température de l'air -100cm
ff = Vitesse du vent
fx = gusts
dd = Direction du vent
ppp = reduced air pressure
vv = visibility
sd = Ensoleillement
rr = Quantités de précipitations

stations d'obs. à proximité